SCP
0 0 0 0 0 0 0 0 0 1 1 1 1 1 1 1 1 1 1 1 1 1 1 1 1 1 1 1 1 1 1 1 1 1 1 1 1 1 1 1 1 0 0
0 0 0 0 0 0 0 0 0 1 1 1 1 1 1 1 1 1 1 1 1 1 1 1 1 1 1 1 1 1 1 1 1 1 1 1 1 1 1 1 1 1 1
0 0 0 0 0 0 0 1 1 1 1 1 1 1 1 1 1 1 1 1 1 1 1 1 1 1 1 1 1 1 1 1 1 1 0 0 0 1 1 1 1 1 1
0 0 0 0 0 0 0 1 1 1 1 1 1 1 1 1 1 1 1 1 1 1 1 1 1 1 1 1 1 1 1 1 1 1 0 0 0 1 1 1 1 1 1
0 0 0 0 0 0 1 1 1 1 1 1 1 1 1 1 1 1 1 1 1 1 1 1 1 1 1 1 1 1 1 1 1 0 0 0 0 1 1 1 1 1 1
0 0 0 0 1 1 1 1 1 1 1 1 1 1 1 1 1 1 1 1 1 1 1 1 1 1 1 1 1 1 1 1 1 0 0 0 1 1 1 1 1 1 1
0 0 0 1 1 1 1 1 1 1 1 2 2 2 1 1 1 1 1 1 1 1 1 1 1 1 1 1 1 1 1 1 1 0 0 0 1 1 1 1 1 1 1
0 0 1 1 1 1 1 1 1 1 2 2 2 2 1 1 1 1 1 1 1 1 1 1 1 1 1 1 1 1 1 1 1 0 0 0 1 1 1 1 1 1 1
0 0 0 1 1 1 1 1 1 1 1 1 2 1 1 1 1 1 1 1 1 1 1 1 1 1 1 1 1 1 1 1 1 0 0 0 1 1 1 1 1 1 1
0 0 0 0 0 0 0 1 1 1 1 1 1 1 1 1 1 1 1 1 1 1 1 1 1 1 1 1 1 1 1 1 1 0 0 0 1 1 1 1 1 1 1
0 0 0 0 0 0 0 0 0 1 1 1 1 1 1 1 0 0 0 1 1 1 1 1 1 1 1 1 1 1 1 1 1 1 1 1 1 1 1 1 1 1 1
0 0 0 0 0 0 0 0 0 0 0 0 0 0 0 0 0 0 0 0 1 1 1 1 1 1 1 1 1 1 1 1 1 1 1 1 1 1 1 1 1 1 1
0 0 0 0 0 0 0 0 0 0 0 0 0 0 0 0 0 0 0 0 0 1 1 1 1 1 1 1 1 1 0 0 0 0 0 1 1 1 1 1 1 0 0
0 0 0 0 0 0 0 0 0 0 0 0 0 0 0 0 0 0 0 0 0 0 0 1 1 0 0 0 0 0 0 0 0 0 0 0 1 1 1 1 1 0 0
0 0 0 0 0 0 0 0 0 0 0 0 0 0 0 0 0 0 0 0 0 0 0 0 0 0 0 0 0 0 0 0 0 0 0 0 0 0 1 1 1 1 1
0 0 0 0 0 0 0 0 0 0 0 0 0 0 0 0 0 0 0 0 0 0 0 0 0 0 0 0 0 0 0 0 0 0 0 0 0 1 1 1 1 1 1
0 0 0 0 0 0 0 0 0 0 0 0 0 0 0 0 0 0 0 0 0 0 0 0 0 0 0 0 0 0 0 0 0 0 0 0 0 0 1 1 1 1 1
1 1 1 1 1 0 0 0 0 0 0 0 0 0 0 0 0 0 0 0 0 0 0 0 0 0 0 0 0 0 0 0 0 0 0 0 0 0 0 1 1 1 1
1 1 1 1 1 0 0 0 0 0 0 0 0 0 0 0 0 0 0 0 0 0 0 0 0 0 0 0 0 0 0 0 0 0 0 0 0 0 0 0 1 1 1
2 1 1 1 1 1 0 0 0 0 0 0 0 0 0 0 0 0 0 0 0 0 0 0 0 0 0 0 0 0 0 0 0 0 0 0 0 0 0 0 0 0 1
2 1 1 1 1 1 1 0 0 0 0 0 0 0 0 0 0 0 0 0 0 0 0 0 0 0 0 0 0 0 0 0 0 0 0 0 0 0 0 0 0 0 0
2 1 1 1 1 1 1 0 0 0 0 0 0 0 0 0 0 0 0 0 0 0 0 0 0 0 0 0 0 0 0 0 0 0 0 0 0 0 0 0 0 0 0
1 2 1 1 1 1 1 1 0 0 0 0 0 0 0 0 0 0 0 0 0 0 0 0 0 0 0 0 0 0 0 0 0 0 0 0 0 0 0 0 0 0 0
1 1 2 1 1 1 1 1 0 0 0 0 0 0 0 0 0 0 0 0 0 0 0 0 0 0 0 0 0 0 0 0 0 0 0 0 0 0 0 0 0 0 0
1 1 1 1 1 1 1 1 1 0 0 0 0 0 0 0 0 0 0 0 0 0 0 0 0 0 0 0 0 0 0 0 0 0 0 0 0 0 0 0 0 0 0
1 1 1 1 1 1 1 1 1 0 0 0 0 0 0 0 0 0 0 0 0 0 0 0 0 0 0 0 0 0 0 0 0 0 0 0 0 0 0 0 0 0 0
Wind_Speed
1 2 6 6 7 7 7 7 7 7 7 8 8 8 9 9 10 10 10 10 10 10 11 11 11 11 11 11 11 11 11 11 11 11 10 10 10 9 9 9 8 6 9
4 3 7 7 7 7 7 7 7 7 7 8 8 8 9 9 10 10 10 10 10 11 11 11 11 11 11 11 10 10 10 10 10 10 9 8 8 9 9 9 8 5 8
6 4 5 7 7 7 7 7 7 7 8 8 8 8 9 9 9 9 9 10 10 10 10 10 10 10 11 10 10 10 10 9 10 10 8 4 5 8 8 9 8 8 8
7 4 5 7 7 7 7 7 7 8 8 8 9 9 9 9 9 9 10 10 10 10 10 10 10 10 10 10 10 10 10 10 9 8 4 3 3 7 8 8 8 8 8
6 4 5 8 7 7 7 7 7 8 8 9 9 9 9 9 9 9 10 10 10 10 10 10 10 10 10 10 10 10 10 10 10 7 4 3 3 7 8 8 8 7 7
6 4 5 8 7 7 7 7 7 8 8 9 9 9 9 9 9 9 9 9 10 10 10 10 10 10 10 10 10 10 10 10 8 5 4 3 3 6 8 8 7 7 7
5 4 5 8 8 8 8 7 8 8 9 9 9 9 9 9 9 9 9 9 9 9 10 10 10 10 10 10 10 10 10 10 6 4 3 3 4 8 8 8 7 7 7
7 4 4 8 8 8 8 7 8 8 9 9 9 9 9 8 8 8 8 9 9 9 10 10 10 10 10 9 10 10 10 9 6 5 4 3 7 9 9 8 7 7 6
6 5 4 4 5 6 7 7 7 8 8 9 8 7 7 7 7 7 8 9 8 9 9 9 9 9 10 9 9 10 10 9 5 3 4 3 8 9 9 8 8 8 7
5 5 4 4 3 2 3 5 6 7 7 7 7 6 6 6 6 6 6 7 8 8 8 9 9 9 9 9 9 9 9 7 4 4 2 4 8 9 9 8 8 8 8
5 3 4 4 3 2 2 3 4 5 5 5 4 5 4 2 2 3 5 7 7 7 7 7 8 8 8 8 9 9 7 3 3 2 2 6 8 8 8 8 8 9 8
4 4 4 4 4 3 2 2 1 2 2 2 2 2 2 2 2 3 4 5 6 6 5 6 7 7 6 4 6 7 3 4 3 2 3 7 8 8 9 9 9 8 8
5 4 4 4 4 4 2 2 1 1 1 1 2 2 2 2 2 3 2 3 3 4 2 4 4 3 3 3 3 4 4 3 2 2 3 7 8 8 9 9 9 8 8
4 4 4 5 4 4 3 2 2 1 1 1 1 2 3 2 2 2 2 2 2 2 2 3 3 4 4 4 4 4 4 3 2 2 3 8 9 9 9 9 8 8 8
4 4 4 5 4 4 3 2 2 2 2 2 2 2 3 3 3 2 2 2 2 2 3 3 4 4 4 4 4 5 4 4 4 3 3 8 9 9 9 9 9 9 9
5 5 4 5 5 5 3 3 2 2 2 2 2 3 3 3 3 2 2 2 2 2 2 3 4 4 4 4 4 4 4 3 4 4 3 5 8 8 8 8 9 9 8
6 5 5 6 5 5 4 3 3 2 3 2 2 3 3 3 3 3 3 2 2 2 3 3 4 4 4 4 4 3 3 3 3 3 3 3 3 6 7 8 8 8 7
6 6 6 6 6 5 4 4 3 2 3 2 2 3 3 4 4 3 3 2 2 2 3 3 3 4 3 3 3 2 2 2 3 3 3 3 2 3 5 7 7 7 7
8 7 6 6 6 5 5 4 3 3 3 2 2 2 3 4 4 4 3 2 3 3 3 3 3 3 3 3 2 2 2 2 2 2 2 2 2 2 2 4 6 7 6
8 7 7 6 6 5 4 3 3 3 2 2 2 2 3 3 4 4 3 3 3 3 3 3 3 3 2 2 3 3 2 2 1 1 1 1 1 2 2 3 3 4 6
7 7 7 7 6 5 3 3 2 2 1 1 1 2 3 3 4 4 3 3 3 3 3 4 4 4 2 2 3 3 3 3 2 1 1 1 1 1 2 2 2 2 2
8 7 7 8 7 6 4 3 3 3 1 1 1 1 2 3 4 4 4 3 3 3 3 4 4 3 1 1 2 2 2 3 3 2 1 1 1 1 1 1 1 1 2
8 8 8 8 7 6 5 3 3 3 2 1 1 0 1 3 3 4 4 4 3 3 3 3 4 4 2 0 1 3 3 2 1 2 2 2 1 1 1 1 1 1 1
8 7 7 8 7 6 6 6 6 4 3 3 2 2 1 2 3 4 4 4 4 3 3 3 3 3 4 2 0 0 2 3 2 1 2 2 2 1 1 1 1 0 0
6 7 6 7 6 6 6 7 6 4 3 2 1 2 2 2 2 3 4 4 4 3 4 3 3 3 2 3 2 1 1 1 2 2 1 2 2 1 1 0 0 0 0
4 5 5 6 5 5 6 6 6 6 5 4 3 3 2 1 1 3 3 4 4 3 4 3 3 3 3 2 2 2 2 2 2 2 2 1 1 2 1 1 1 1 1
Wind_Direction
187 186 118 106 94 86 82 81 84 83 84 87 88 87 87 89 91 91 90 89 88 89 91 92 92 91 91 93 94 94 94 95 100 101 103 101 101 102 103 104 102 104 109
160 148 117 108 97 90 87 87 89 88 88 92 93 90 89 91 93 94 93 91 90 89 89 89 90 91 92 92 93 95 95 95 95 94 94 95 98 101 103 107 111 109 110
135 129 118 111 98 92 90 88 93 95 93 94 94 91 90 92 95 97 95 93 92 91 90 90 91 92 92 92 92 94 94 94 95 92 86 77 90 101 105 105 108 109 108
134 131 121 112 101 96 93 91 89 98 99 96 96 95 93 92 93 96 95 95 94 94 93 90 91 95 92 91 91 90 87 87 89 86 75 78 91 102 105 104 104 104 105
125 125 122 113 104 100 98 97 93 99 103 101 99 101 98 96 94 95 96 96 94 94 92 91 90 92 92 90 91 90 86 83 84 77 65 71 86 103 102 102 103 104 106
128 129 125 117 110 104 103 101 96 102 105 104 102 104 103 100 98 96 98 98 97 96 94 92 91 90 89 92 91 88 85 81 77 69 67 73 84 103 103 103 104 104 106
136 133 128 121 114 109 105 103 100 104 107 106 105 106 106 104 99 96 99 99 100 101 99 94 91 90 90 91 90 87 84 81 78 69 68 73 89 96 98 102 103 105 109
136 133 128 123 117 115 111 107 105 103 105 107 107 106 106 104 100 96 98 100 100 102 100 98 94 92 90 91 89 86 81 78 81 77 70 70 96 95 94 95 96 101 107
136 134 128 131 123 121 119 114 109 107 104 108 111 113 110 108 106 102 102 104 104 107 105 101 99 96 90 86 83 83 79 74 68 68 83 80 97 96 93 91 91 93 98
140 137 142 145 135 121 115 116 115 111 106 105 107 109 107 107 109 108 106 106 105 108 108 105 99 95 91 85 82 78 74 69 62 61 60 90 97 96 93 91 89 89 91
150 153 155 155 156 153 147 131 118 112 105 100 97 99 90 72 78 98 115 115 113 110 108 104 95 91 88 82 79 75 70 60 64 60 62 89 95 94 91 89 88 86 87
164 170 169 166 166 161 152 120 93 100 89 91 90 86 80 81 79 92 98 111 115 110 103 97 93 90 79 66 68 66 57 59 52 55 80 92 97 93 90 90 87 86 86
168 167 160 165 166 158 147 129 107 97 93 95 93 88 90 79 71 64 60 68 76 91 74 76 75 69 77 78 71 67 63 65 48 44 73 91 92 91 91 89 87 86 83
146 154 155 155 153 158 144 133 128 122 110 113 118 118 107 94 80 72 65 66 65 76 90 82 82 82 81 80 82 79 69 64 54 39 60 80 82 85 88 88 84 85 81
152 148 146 142 140 140 133 135 124 129 135 135 125 123 118 111 106 94 88 78 78 80 88 93 93 90 86 84 83 82 75 71 67 53 50 69 74 79 84 85 82 80 79
166 160 147 136 133 128 125 123 121 130 125 107 106 120 120 116 117 108 91 80 78 86 91 99 102 96 89 88 84 83 81 79 74 65 52 55 65 72 79 85 82 79 76
170 157 146 140 131 128 130 126 116 116 110 103 104 113 115 116 117 112 104 96 93 99 96 91 90 88 89 85 77 74 76 76 77 70 60 47 46 62 72 79 83 83 78
157 151 149 139 132 130 126 121 117 115 112 110 109 113 121 117 113 110 110 108 108 101 100 103 97 90 83 77 70 59 60 67 70 74 69 61 47 46 56 69 74 77 79
159 153 145 137 136 134 127 122 113 106 107 116 113 117 124 123 120 116 116 113 105 98 101 115 100 104 102 88 81 64 48 57 58 77 78 70 67 63 49 58 64 65 69
161 154 149 144 141 133 119 105 89 80 84 98 119 129 126 123 123 117 118 112 106 100 95 103 108 95 106 109 85 59 34 31 44 61 79 70 72 80 69 59 50 48 54
156 154 152 148 151 140 129 129 125 129 137 117 132 124 126 129 128 122 121 114 112 116 122 119 113 102 86 92 78 41 14 18 31 31 38 71 76 85 85 76 62 47 38
167 165 161 159 160 159 158 158 154 147 149 139 124 116 132 134 140 136 131 129 125 119 115 119 118 112 110 105 112 93 28 359 357 11 17 62 66 59 74 102 83 71 46
174 175 171 171 167 165 156 126 97 75 61 59 65 167 170 154 152 142 141 136 135 131 139 146 144 136 152 203 132 138 143 200 308 338 357 19 34 49 43 70 90 89 77
184 182 173 170 168 165 154 148 150 154 167 195 194 194 189 170 160 154 151 148 146 144 150 162 154 148 148 167 235 175 162 157 153 320 334 349 14 32 24 60 79 98 120
174 173 170 164 165 163 159 159 158 163 177 177 169 174 186 190 176 166 160 155 156 158 164 164 155 153 156 166 176 161 116 100 123 144 236 314 349 338 333 269 181 192 179
153 154 155 157 164 166 163 163 166 172 170 164 178 184 195 201 207 192 170 168 170 169 174 177 170 164 168 165 173 162 157 161 170 153 173 223 270 299 318 301 240 223 201